Probability
1 3 8 11 10 10 8 5 5 6 6 6 5 4 3 2 1 1 0 1 4 6 6 5 4 4 5 5 2 1 1 1 1 1 0 1 1 1 0 0 0 0 0
3 5 10 12 12 12 11 9 7 7 7 7 5 5 4 3 2 2 1 2 4 6 7 6 5 6 8 7 5 3 2 2 3 3 2 1 0 0 0 0 0 0 0
7 10 13 15 16 16 15 12 9 8 8 8 8 7 7 6 4 3 3 3 4 7 8 8 8 10 12 12 8 6 5 5 5 5 4 1 0 0 0 0 0 0 0
12 12 15 18 21 20 18 13 10 9 8 9 10 10 9 8 6 4 4 4 5 8 10 9 9 10 12 12 9 7 6 6 6 6 5 3 1 0 0 0 0 0 0
15 14 15 19 22 23 20 15 11 9 8 9 10 10 9 9 7 6 6 6 7 9 11 10 8 8 9 9 8 7 6 5 5 5 5 4 3 1 1 0 0 0 0
19 17 15 17 22 25 23 17 13 11 10 11 11 11 9 7 6 7 8 9 10 11 13 13 11 10 9 8 7 7 6 6 6 5 5 5 4 3 2 1 0 0 0
20 18 14 13 18 22 22 18 15 14 14 13 13 12 10 8 6 7 10 12 13 14 16 16 16 15 13 10 9 8 7 7 6 5 5 6 6 5 3 2 1 0 0
18 15 11 9 11 16 18 16 14 13 13 13 13 12 12 11 9 9 11 13 14 15 16 19 19 18 17 15 13 11 9 8 7 7 8 8 7 6 4 3 2 1 0
13 11 9 8 9 12 15 15 13 12 12 12 12 12 13 12 11 11 12 12 13 13 15 19 19 17 16 16 15 14 12 9 9 10 9 7 7 6 4 3 3 2 1
10 10 10 11 12 13 14 15 15 15 14 14 13 13 13 13 12 12 12 11 11 12 13 15 16 15 15 14 14 13 12 10 9 9 7 6 5 5 3 3 3 3 3
9 11 13 15 17 16 14 16 19 19 18 17 15 14 13 13 12 11 9 8 9 10 10 11 13 14 15 14 14 13 12 10 9 8 6 4 4 3 3 2 2 3 3
9 12 15 17 19 17 15 18 21 22 21 19 17 16 14 12 11 9 6 6 7 8 9 11 12 14 14 14 13 13 13 12 11 9 7 5 4 3 3 3 2 2 2
11 13 15 17 18 17 16 19 22 23 22 20 20 19 17 13 11 10 8 7 6 7 8 10 11 12 13 13 12 12 13 13 12 11 10 8 5 4 4 3 3 2 2
14 15 14 14 14 15 17 20 22 22 21 21 22 22 19 14 12 12 11 9 7 6 7 8 8 10 11 11 11 11 12 13 13 13 12 10 9 6 5 4 3 4 4
18 16 13 12 12 14 18 20 21 19 19 20 20 19 17 14 12 12 11 9 7 6 6 6 7 8 10 10 9 9 11 12 13 13 12 12 11 9 6 5 4 4 5
20 17 13 13 14 16 19 20 18 16 16 16 16 16 15 14 13 12 10 8 7 6 6 7 7 8 9 8 7 7 9 11 13 13 12 11 10 9 7 5 4 4 5
18 17 16 16 17 19 20 19 17 16 15 15 15 15 16 16 16 14 11 8 7 7 8 8 9 9 8 7 5 4 6 9 12 12 12 11 10 9 8 6 4 4 4
15 16 17 18 18 19 20 18 16 16 17 17 17 17 18 20 20 18 14 11 9 9 8 9 9 9 8 6 4 3 5 7 10 11 11 11 10 9 8 6 5 4 4
13 14 16 17 16 15 17 17 15 15 16 17 18 20 21 23 23 21 18 15 13 11 9 8 8 7 7 6 4 3 5 7 9 10 10 10 9 8 7 6 6 6 6
15 15 16 16 14 13 16 17 16 15 16 17 18 20 22 24 24 22 21 19 17 15 13 10 9 8 7 6 5 3 5 7 9 9 9 8 8 6 4 5 6 7 7
17 16 16 15 13 13 16 19 18 17 17 18 18 21 24 24 23 21 21 20 18 17 16 14 13 12 10 8 6 3 3 6 8 9 9 8 6 3 2 2 4 6 6
17 17 17 16 14 14 16 19 19 18 18 19 20 23 25 24 22 19 18 18 17 16 15 15 14 14 13 11 7 3 2 3 6 8 8 8 6 2 0 0 2 3 3
17 17 17 16 15 14 16 17 19 20 19 18 19 20 21 21 19 16 15 16 16 15 14 13 13 13 14 12 9 5 2 1 3 4 5 6 5 2 0 0 0 1 1
19 19 18 17 16 14 14 16 18 20 18 15 15 16 16 16 15 14 14 14 14 13 13 12 12 12 13 13 11 8 5 3 3 3 3 3 3 3 2 2 1 1 2
21 20 18 17 16 14 13 14 16 17 15 11 11 12 13 14 14 13 12 10 9 9 9 9 9 10 11 11 11 10 8 5 4 5 5 4 5 5 7 6 3 2 3
20 20 18 17 17 15 13 13 15 16 13 10 9 10 12 14 14 13 10 8 6 5 5 5 6 6 7 9 10 9 8 6 4 5 7 7 7 7 9 8 6 4 5
Wind_Speed
8 8 8 8 7 6 6 5 4 3 3 2 2 1 1 1 0 1 2 3 3 3 3 2 2 2 2 2 2 1 1 1 1 1 1 2 2 2 3 3 3 4 4
6 7 7 7 7 7 6 6 5 4 4 3 2 2 2 1 1 1 1 2 3 2 3 3 2 2 2 2 2 2 1 1 1 2 1 2 3 2 2 1 3 4 3
11 10 9 7 7 8 8 7 6 5 4 3 2 1 1 1 1 1 0 1 2 2 2 3 2 2 2 2 2 2 2 1 1 1 2 2 2 2 2 1 1 2 2
10 10 9 8 8 8 7 7 6 5 4 4 3 4 3 2 2 2 1 1 2 2 2 2 2 2 2 2 3 2 2 2 1 1 1 2 3 2 1 2 1 0 2
10 10 10 10 9 8 7 6 5 5 4 4 4 4 3 2 1 1 1 1 1 1 2 2 2 2 2 2 2 1 2 2 2 2 1 0 1 1 2 1 1 1 1
8 7 7 6 6 6 7 6 6 4 4 4 4 4 4 3 2 2 1 1 1 1 1 2 2 2 1 1 1 1 2 2 2 2 1 2 1 1 2 2 1 1 1
7 6 5 6 6 6 6 6 6 5 4 4 4 4 4 3 3 3 2 2 1 1 2 1 1 1 2 2 2 2 2 2 2 2 2 2 2 2 2 2 1 1 1
7 7 7 7 7 7 7 7 7 6 5 4 3 3 3 2 1 2 2 2 2 2 2 2 2 2 2 2 2 2 2 1 2 2 2 2 2 2 2 3 2 0 1
8 7 7 7 7 8 8 8 7 6 5 4 4 3 3 3 2 2 2 2 2 1 1 2 1 2 2 1 2 1 2 1 2 2 2 2 1 2 2 2 3 3 2
6 7 6 6 6 6 6 7 6 6 5 5 4 4 3 3 3 2 1 1 1 1 2 2 1 1 1 1 2 1 1 1 2 2 1 1 1 1 1 2 2 2 3
7 6 6 6 5 5 5 5 5 5 4 4 4 4 3 3 2 2 2 1 1 1 2 2 2 2 2 2 2 2 2 2 2 2 2 2 2 1 1 1 1 2 2
7 7 6 6 5 4 5 5 5 5 4 4 4 4 3 3 3 2 2 1 1 1 2 1 1 2 2 2 2 3 2 3 3 2 2 2 1 1 1 1 2 2 2
5 5 5 5 5 5 5 5 4 4 4 4 4 3 3 3 3 3 3 2 2 1 1 1 1 2 2 2 3 3 3 3 3 3 3 3 3 2 2 2 2 2 2
5 5 4 4 4 5 5 5 4 4 3 4 4 4 4 4 4 3 3 3 2 2 2 2 2 2 2 2 2 3 3 3 3 3 4 4 4 4 3 3 3 3 2
6 6 6 5 5 5 4 4 4 4 4 3 4 4 3 3 3 3 3 3 3 3 3 3 2 2 2 2 2 2 3 3 4 3 4 4 5 5 4 3 3 3 2
7 7 6 6 6 5 5 4 4 4 4 3 4 4 3 3 3 3 3 2 3 3 2 3 3 3 3 3 4 3 3 3 4 4 4 4 4 4 5 5 5 5 4
6 7 6 6 6 5 5 5 4 4 3 3 3 3 3 3 4 4 3 3 3 3 3 3 3 3 4 5 4 4 3 3 4 4 4 4 3 3 3 4 5 5 6
6 5 5 5 4 4 3 3 3 3 3 2 2 2 2 3 3 3 3 4 3 3 3 3 3 3 4 4 4 4 3 3 3 4 4 4 3 3 3 3 3 4 4
6 6 5 5 5 4 4 4 3 3 2 2 2 2 3 3 3 3 4 3 3 3 3 3 3 3 4 5 5 4 2 2 4 4 4 3 4 5 4 3 3 4 4
5 5 4 4 4 4 4 4 3 2 2 2 2 2 2 3 3 4 3 2 2 3 3 3 3 3 4 4 4 3 1 2 3 3 4 5 5 5 5 4 4 5 5
5 5 5 4 3 3 4 4 3 2 2 2 2 1 2 2 3 3 2 2 2 1 2 2 3 3 4 4 4 4 3 3 3 3 4 4 6 7 7 6 5 8 6
4 5 4 3 2 3 4 3 2 2 1 1 1 1 2 2 1 1 1 1 1 1 2 2 3 2 3 4 4 5 6 5 4 4 4 4 6 7 8 6 7 7 5
3 4 4 3 1 2 3 3 2 1 0 0 0 1 1 1 1 1 1 1 1 1 2 2 2 3 3 3 5 5 6 6 5 5 6 6 6 6 5 7 7 5 3
3 3 4 3 1 1 2 2 2 1 1 1 0 1 0 1 1 1 1 1 1 1 2 2 3 3 3 3 3 3 3 4 4 4 5 6 6 4 4 4 4 3 4
2 3 4 3 3 2 2 2 2 2 1 1 0 1 0 1 1 1 1 2 3 4 3 3 3 3 4 5 5 3 3 3 4 2 2 1 1 2 2 2 3 3 3
2 2 2 2 2 2 2 2 2 2 2 1 1 1 1 1 1 1 2 3 3 5 5 5 4 4 6 6 6 6 5 5 3 2 2 2 2 3 3 3 3 3 4
Wind_Direction
183 171 169 163 160 159 155 156 151 159 148 137 143 152 204 223 148 166 158 161 162 161 153 162 169 168 171 181 173 163 171 208 155 93 349 325 284 244 241 224 203 199 204
172 173 171 169 164 165 167 164 167 171 171 170 173 172 172 190 180 168 147 161 164 171 166 160 166 171 166 169 179 164 160 219 162 143 93 355 344 325 281 229 191 191 187
176 179 176 176 170 172 175 175 177 177 179 166 136 116 78 35 33 39 227 217 181 174 169 166 171 179 169 180 194 178 167 194 242 160 150 156 232 308 328 337 159 171 171
177 178 178 178 178 180 177 173 175 175 177 163 150 151 156 180 211 205 204 225 200 184 171 167 174 180 181 184 198 182 175 164 210 263 217 176 165 158 321 348 360 182 180
179 179 179 181 182 177 172 170 170 177 174 165 166 165 176 190 189 169 179 222 244 214 191 181 180 182 180 185 193 177 179 173 181 192 193 168 77 123 156 265 319 338 262
179 179 178 174 174 170 168 166 164 177 181 174 173 175 181 176 161 179 189 218 244 249 221 183 178 187 177 176 181 176 178 190 186 188 174 160 158 184 169 197 241 261 272
169 168 168 170 167 169 165 162 159 167 174 177 186 191 188 177 185 195 188 186 193 226 231 188 178 185 185 185 185 181 197 192 188 200 204 190 192 170 160 160 194 235 282
166 167 174 171 168 175 177 169 170 175 176 177 192 196 175 163 179 190 183 187 197 213 217 184 182 194 193 195 189 190 213 196 200 211 199 194 205 177 168 167 161 163 313
169 170 171 168 168 174 179 179 176 178 182 179 180 176 163 154 166 186 194 192 205 199 180 173 183 199 204 204 183 197 218 205 207 214 209 207 214 189 187 176 166 166 200
169 166 166 172 174 173 168 167 172 176 175 179 181 173 173 174 176 163 172 182 197 193 167 181 198 209 216 205 185 199 215 198 226 214 198 217 214 201 196 189 180 176 180
168 162 165 171 164 160 161 158 163 165 172 181 179 179 185 185 180 181 195 189 182 182 192 198 197 207 221 215 197 211 211 207 227 226 204 228 213 205 214 196 189 193 173
169 167 161 155 154 158 158 158 159 173 184 184 176 182 185 178 174 190 199 186 190 210 210 202 205 221 221 217 211 224 223 210 213 218 205 232 226 217 210 191 202 211 202
159 156 152 153 161 163 161 159 162 173 180 173 173 182 188 185 193 203 203 195 195 210 225 212 224 238 226 221 224 223 226 219 220 215 206 216 210 230 225 203 208 217 221
165 159 161 165 172 170 163 160 162 164 160 163 170 189 201 201 207 210 205 201 197 197 214 226 234 236 232 228 231 229 228 229 232 224 216 216 209 218 218 217 216 208 206
167 169 174 180 178 174 165 165 167 166 165 170 184 200 206 201 202 207 214 215 213 215 217 225 238 242 235 236 233 237 237 232 236 235 230 229 224 219 214 210 207 204 206
169 172 170 168 171 170 166 165 171 177 169 172 196 203 195 198 209 215 215 215 225 230 225 228 232 239 250 252 239 226 238 237 233 236 240 236 228 232 226 222 215 205 206
168 164 165 163 168 177 172 170 177 169 168 184 198 198 197 204 217 224 217 217 225 233 239 238 233 238 249 247 245 241 227 231 231 227 230 234 235 223 235 243 242 240 235
167 160 157 157 159 157 164 166 154 150 160 176 197 205 197 212 220 217 221 224 224 229 237 240 236 236 246 239 239 239 231 235 241 232 222 222 237 236 225 234 241 243 242
162 161 161 154 145 148 165 148 146 148 156 181 207 216 207 216 220 222 230 226 221 236 240 239 233 233 248 238 235 224 232 252 260 252 235 224 227 238 220 208 232 256 265
147 143 135 117 134 161 156 144 152 154 183 204 221 230 215 216 223 224 229 232 222 233 242 251 243 232 245 250 239 216 221 253 265 267 256 242 231 228 211 206 218 242 254
134 127 121 128 147 150 136 137 146 188 211 216 231 242 233 229 225 226 233 227 223 232 250 263 266 250 244 245 235 218 215 238 254 259 258 251 238 233 229 222 223 236 242
117 121 117 120 131 130 126 135 187 226 223 210 235 248 236 235 238 218 253 231 209 224 255 271 281 274 258 249 246 232 228 231 235 251 255 255 249 242 241 234 237 242 241
131 126 123 118 104 115 128 142 227 238 150 74 287 269 267 258 235 182 195 211 199 229 257 255 262 274 274 270 263 252 249 246 238 249 257 262 257 251 249 246 245 240 222
131 125 123 127 138 149 148 181 208 176 116 103 334 294 281 295 292 244 215 206 223 248 261 263 265 272 277 281 287 279 265 260 256 261 268 265 260 250 250 260 249 226 217
141 138 145 164 186 191 199 212 192 149 138 154 277 292 280 222 252 261 242 233 231 224 229 245 247 256 266 265 261 253 254 246 245 249 263 276 286 271 265 259 249 231 223
136 135 154 177 201 197 213 228 200 169 171 201 238 251 253 250 256 287 317 307 273 264 245 240 242 253 256 266 259 253 252 254 242 201 238 250 251 253 255 254 248 233 225